[[{"header":{"parameterUnit":"m.s-1","parameterCategory":1,"la1":30.2991,"la2":30.254,"lo1":-89.0895,"lo2":-89.0444,"dy":0.0017,"dx":0.0017,"nx":28,"ny":28,"refTime":"2026-02-04T09:00:00:Z","depth":0,"parameterNumber":2,"parameterNumberName":"U-component_of_WINDS"},"data":[0,0,0,0,0,0,0,0,0,0,0,0,0,0,0,0,0,0,0,0,0,0,0,0,0,0,0,0,0,0,0,0,0,0,0,0,0,0,0,0,0,0,0,0,0,0,0,0,0,0,0,0,0,0,0,0,0,0,0.8641,0.8641,0,0.8647,0.8647,0.8647,0.8613,0.8612,0.8611,0.861,0.8618,0.8619,0.862,0,0,0,0,0,0,0,0,0,0,0,0,0,0.8605,0.8605,0.8641,0.8641,0.8641,0.8647,0.8647,0.8647,0.8613,0.8612,0.8611,0.861,0.8618,0.8619,0.8621,0,0,0,0,0,0,0,0,0,0,0,0,0,0.8616,0.8606,0.8641,0.8625,0.8624,0.8647,0.8647,0.8647,0.8614,0.8612,0.8611,0.8609,0.8617,0.8619,0.8621,0.866,0,0,0.8626,0.8626,0,0,0,0,0,0,0,0,0.8616,0.8618,0.8628,0.8626,0.8625,0.8628,0.8637,0.8651,0.8614,0.8618,0.861,0.8609,0.8623,0.8624,0.8628,0.866,0.866,0.8626,0.8627,0.8628,0.8628,0,0,0,0,0,0,0,0.8615,0.8617,0.8643,0.8628,0.8626,0.8619,0.8619,0.8639,0.8628,0.8617,0.8615,0.8616,0.8622,0.8627,0.8628,0.866,0.8626,0.8627,0.8628,0.8629,0.8725,0.8727,0,0,0,0,0,0,0.8616,0.8617,0.8643,0.8644,0.8617,0.8621,0.8621,0.8628,0.8628,0.8626,0.8617,0.8614,0.8624,0.8626,0.8628,0.8674,0.8628,0.8629,0.863,0.8724,0.8726,0.8727,0,0,0,0,0,0,0.8615,0.8619,0.8643,0.863,0.8632,0.8623,0.8632,0.8629,0.8634,0.8628,0.8626,0.8624,0.8623,0.8626,0.8652,0.8674,0.863,0.8631,0.8722,0.8724,0.8726,0.8766,0,0,0,0,0,0,0.8614,0.8619,0.8633,0.863,0.8633,0.8666,0.8633,0.863,0.8637,0.8633,0.8634,0.8632,0.8622,0.865,0.8654,0.8675,0.8633,0.872,0.8723,0.8726,0.8763,0.8769,0.8775,0,0,0,0,0,0.8613,0.8644,0.8633,0.8637,0.865,0.8667,0.8669,0.8656,0.8638,0.8653,0.8649,0.8632,0.8671,0.8653,0.8657,0.8679,0.8718,0.8722,0.8725,0.876,0.8768,0.8775,0,0,0,0,0,0,0.865,0.8643,0.8632,0.8662,0.8666,0.8662,0.8679,0.8665,0.8674,0.8671,0.8656,0.8656,0.8685,0.8685,0.8665,0.8717,0.8692,0.8696,0.8716,0.8724,0.873,0.873,0.8634,0,0,0,0,0,0.8661,0.8675,0.8669,0.8697,0.8699,0.8689,0.8696,0.8686,0.8689,0.8691,0.8689,0.8693,0.8706,0.8715,0.8727,0.8762,0.8763,0.878,0.8786,0.8791,0.8796,0.8815,0.8823,0.8739,0.8739,0.8739,0,0,0.8686,0.8684,0.8694,0.8704,0.8705,0.8721,0.869,0.8708,0.872,0.8693,0.8718,0.8717,0.8721,0.8752,0.8766,0.8753,0.8819,0.8796,0.88,0.8802,0.882,0.8828,0.8835,0.8741,0.8741,0.874,0,0,0.8738,0.8737,0.8761,0.8763,0.8765,0.8758,0.8764,0.8762,0.876,0.8784,0.8765,0.8779,0.8802,0.8806,0.8811,0.8865,0.885,0.8869,0.8902,0.8921,0.8928,0.8933,0.8953,0.8961,0.8873,0.8873,0.8873,0,0.8768,0.8789,0.8775,0.8793,0.8799,0.8776,0.88,0.8802,0.8809,0.8814,0.8799,0.8827,0.8828,0.886,0.8873,0.8878,0.8885,0.8869,0.8928,0.8933,0.8939,0.8958,0.8965,0.8876,0.8875,0.8875,0.8875,0,0.8827,0.8842,0.8861,0.8867,0.8875,0.8896,0.8885,0.8895,0.8884,0.888,0.8905,0.8905,0.8917,0.8924,0.8914,0.8955,0.8947,0.893,0.8904,0.8949,0.8967,0.8974,0.8879,0.8878,0.8877,0.8877,0,0,0.8902,0.89,0.8907,0.8909,0.891,0.8923,0.8943,0.8954,0.8963,0.8968,0.8986,0.9006,0.899,0.8996,0.8986,0.9003,0.9047,0.8985,0.8985,0.8997,0.9093,0.9106,0.9115,0.9037,0.9038,0.9039,0.9093,0,0.8953,0.8987,0.8975,0.9011,0.9025,0.9004,0.9022,0.9025,0.9021,0.9034,0.903,0.9044,0.9023,0.9026,0.9042,0.9038,0.9066,0.9034,0.9054,0.9055,0.9054,0.9124,0.9137,0.9187,0.91,0.9101,0.9102,0,0.9017,0.9025,0.9062,0.9061,0.9066,0.9083,0.9092,0.9104,0.9107,0.9104,0.911,0.9097,0.9118,0.9092,0.9121,0.91,0.9108,0.9107,0.9109,0.9111,0.9081,0.9128,0.9203,0.9211,0.9112,0.9111,0.9111,0,0.9069,0.9088,0.9113,0.9116,0.9115,0.9128,0.9128,0.913,0.9138,0.9146,0.9151,0.9162,0.9168,0.9177,0.9168,0.9149,0.9199,0.9172,0.9197,0.9197,0.9209,0.9208,0.9287,0.9213,0.9213,0.9213,0.9213,0,0.9127,0.9151,0.9136,0.9152,0.9178,0.9164,0.919,0.9188,0.9191,0.9206,0.9188,0.9203,0.9189,0.9203,0.9196,0.9222,0.9225,0.9223,0.9221,0.9225,0.9225,0.923,0.9226,0.9215,0.9214,0.9214,0.9214,0,0.9189,0.918,0.9206,0.9203,0.9203,0.9223,0.9221,0.9236,0.9231,0.925,0.9254,0.9247,0.9262,0.9254,0.927,0.9265,0.9299,0.9292,0.9298,0.9296,0.9322,0.932,0.9407,0.9418,0.9337,0.9337,0.9338,0,0.9227,0.9245,0.9244,0.9253,0.9255,0.9269,0.9276,0.9263,0.9272,0.9278,0.9292,0.9306,0.9316,0.9342,0.9339,0.9351,0.9345,0.9374,0.9347,0.935,0.9346,0.9345,0.9347,0.938,0.9381,0.9382,0.9383,0,0.9296,0.9291,0.9302,0.9312,0.9321,0.9328,0.9334,0.9343,0.933,0.9341,0.9356,0.9364,0.9381,0.9395,0.9406,0.9407,0.9393,0.9391,0.9398,0.9402,0.9405,0.9405,0.9313,0.9389,0.9389,0.9388,0.9388,0.9388,0.9347,0.9362,0.9364,0.9378,0.9381,0.9387,0.94,0.9397,0.941,0.9422,0.9414,0.9432,0.9436,0.9449,0.9452,0.9467,0.9455,0.9465,0.9467,0.947,0.9474,0.9402,0.9469,0.9469,0.9469,0.9468,0.9468,0,0.9415,0.9416,0.9428,0.9437,0.9448,0.9433,0.9439,0.9449,0.9465,0.947,0.948,0.9499,0.9513,0.951,0.9523,0.9536,0.953,0.954,0.9539,0.954,0.9483,0.9476,0.9544,0.9544,0.9544,0.9544,0.9544,0.9544,0.9452,0.9477,0.9472,0.9499,0.9499,0.9516,0.9521,0.9527,0.9531,0.9552,0.9563,0.9561,0.9563,0.9577,0.9589,0.9588,0.9594,0.9607,0.9603,0.9551,0.9543,0.9536,0.953,0.9608,0.9608,0.9658,0.9659,0.9659]},{"header":{"parameterUnit":"m.s-1","parameterCategory":1,"la1":30.2991,"la2":30.254,"lo1":-89.0895,"lo2":-89.0444,"dy":0.0017,"dx":0.0017,"nx":28,"ny":28,"refTime":"2026-02-04T09:00:00:Z","depth":0,"parameterNumber":3,"parameterNumberName":"V-component_of_WINDS"},"data":[0,0,0,0,0,0,0,0,0,0,0,0,0,0,0,0,0,0,0,0,0,0,0,0,0,0,0,0,0,0,0,0,0,0,0,0,0,0,0,0,0,0,0,0,0,0,0,0,0,0,0,0,0,0,0,0,0,0,2.6008,2.6009,0,2.6094,2.6095,2.6096,2.608,2.6079,2.6077,2.6076,2.6163,2.6167,2.6171,0,0,0,0,0,0,0,0,0,0,0,0,0,2.5829,2.5832,2.6008,2.6009,2.601,2.6094,2.6095,2.6096,2.6081,2.6079,2.6077,2.6075,2.6162,2.6166,2.6171,0,0,0,0,0,0,0,0,0,0,0,0,0,2.591,2.5833,2.6008,2.6012,2.6013,2.6093,2.6095,2.6096,2.6081,2.6079,2.6076,2.6074,2.6161,2.6166,2.6172,2.6252,0,0,2.6189,2.6191,0,0,0,0,0,0,0,0,2.5905,2.5917,2.601,2.6012,2.6014,2.6074,2.6064,2.6149,2.6081,2.6055,2.6076,2.6073,2.6135,2.6143,2.6164,2.6256,2.626,2.6189,2.6193,2.6195,2.6197,0,0,0,0,0,0,0,2.59,2.5913,2.6042,2.6012,2.6014,2.601,2.6019,2.608,2.6107,2.6057,2.6056,2.6067,2.6136,2.6159,2.6166,2.6261,2.6189,2.6194,2.6198,2.62,2.6424,2.6426,0,0,0,0,0,0,2.5893,2.5908,2.6039,2.6044,2.5953,2.6015,2.6025,2.6057,2.6106,2.6112,2.6069,2.6066,2.615,2.6159,2.6169,2.6267,2.6195,2.62,2.6204,2.6421,2.6425,2.6427,0,0,0,0,0,0,2.5889,2.5905,2.6036,2.5976,2.5992,2.602,2.6056,2.606,2.6083,2.6115,2.612,2.6087,2.6149,2.6161,2.6232,2.627,2.6203,2.6208,2.6418,2.6422,2.6426,2.6463,0,0,0,0,0,0,2.5884,2.5903,2.5934,2.5977,2.5996,2.6097,2.6059,2.6063,2.6093,2.609,2.6134,2.6139,2.6148,2.6223,2.6237,2.6276,2.6212,2.6415,2.642,2.6425,2.6459,2.6468,2.6476,0,0,0,0,0,2.5878,2.5941,2.5936,2.5952,2.6035,2.6099,2.611,2.612,2.6096,2.6127,2.6148,2.6137,2.6263,2.6231,2.6246,2.6288,2.6413,2.6419,2.6424,2.6455,2.6466,2.6476,0,0,0,0,0,0,2.5903,2.5947,2.5942,2.6021,2.6057,2.6097,2.6137,2.6131,2.6174,2.6169,2.6179,2.6189,2.6261,2.6281,2.6244,2.6368,2.6335,2.6344,2.6353,2.6364,2.6372,2.6366,2.6217,0,0,0,0,0,2.5917,2.5966,2.6002,2.6069,2.6087,2.6109,2.6137,2.6141,2.6178,2.6193,2.6219,2.6255,2.6303,2.6334,2.638,2.6461,2.6471,2.6497,2.6506,2.6513,2.6521,2.6566,2.6578,2.6446,2.6446,2.6446,0,0,2.5948,2.5979,2.6009,2.6074,2.6102,2.6153,2.6121,2.6176,2.6213,2.6201,2.627,2.629,2.6331,2.6407,2.6442,2.6426,2.6559,2.652,2.6525,2.653,2.6573,2.6585,2.6597,2.645,2.645,2.6449,0,0,2.603,2.6058,2.6117,2.6146,2.6188,2.6203,2.6217,2.6258,2.6271,2.634,2.6332,2.6376,2.6458,2.6488,2.6513,2.6607,2.6599,2.6621,2.6666,2.671,2.672,2.6729,2.6763,2.6775,2.6629,2.6629,2.6629,0,2.6064,2.6139,2.6148,2.6203,2.6232,2.6224,2.6284,2.6311,2.6366,2.6387,2.6368,2.6471,2.6498,2.6581,2.6604,2.6625,2.6641,2.6617,2.6718,2.6727,2.6736,2.6768,2.6781,2.6631,2.6631,2.6631,2.6631,0,2.6178,2.623,2.6272,2.6327,2.636,2.6418,2.6435,2.6468,2.6469,2.6485,2.6555,2.6587,2.6639,2.6659,2.6661,2.6743,2.6732,2.6715,2.6682,2.6751,2.6782,2.6794,2.6635,2.6634,2.6633,2.6633,0,0,2.6279,2.6337,2.6353,2.6377,2.6424,2.6464,2.6521,2.6572,2.66,2.6639,2.6687,2.6756,2.6741,2.677,2.6775,2.6813,2.6886,2.6792,2.6793,2.6809,2.6979,2.6992,2.7006,2.688,2.6883,2.6884,2.6976,0,2.6366,2.6466,2.6476,2.6566,2.6614,2.6607,2.6656,2.669,2.6707,2.675,2.6768,2.6817,2.6793,2.6811,2.6848,2.6869,2.692,2.6862,2.6925,2.6927,2.6916,2.7022,2.7036,2.7121,2.6988,2.699,2.6991,0,2.6481,2.6524,2.6619,2.6659,2.6679,2.6724,2.6771,2.6813,2.6851,2.686,2.6893,2.6892,2.695,2.6914,2.6994,2.6955,2.6981,2.6994,2.6998,2.7005,2.6964,2.7033,2.7148,2.7161,2.701,2.7009,2.7007,0,2.6546,2.6627,2.6694,2.6715,2.6764,2.6795,2.6816,2.6852,2.6882,2.6924,2.6944,2.6991,2.7017,2.7054,2.7066,2.7039,2.7146,2.7111,2.7156,2.7156,2.718,2.7178,2.7301,2.7195,2.7195,2.7194,2.7194,0,2.6643,2.6702,2.6724,2.6766,2.6831,2.6841,2.6905,2.6925,2.6957,2.7002,2.6998,2.704,2.7053,2.7098,2.7108,2.7173,2.7185,2.7194,2.7196,2.7195,2.7194,2.7213,2.7208,2.7198,2.7197,2.7196,2.7196,0,2.6728,2.6745,2.6818,2.6857,2.6869,2.6915,2.6949,2.6989,2.7004,2.7061,2.7075,2.71,2.7152,2.7167,2.723,2.7237,2.7313,2.731,2.7301,2.7301,2.7346,2.7342,2.7487,2.7506,2.7386,2.7387,2.7388,0,2.6789,2.6834,2.6878,2.6908,2.6931,2.698,2.7011,2.7022,2.7054,2.7101,2.7135,2.7187,2.7229,2.7313,2.7336,2.7384,2.7382,2.7429,2.7389,2.7387,2.7384,2.7381,2.7386,2.7437,2.7438,2.7439,2.744,0,2.6896,2.6902,2.6947,2.6995,2.7033,2.7071,2.7108,2.7132,2.7149,2.7185,2.7239,2.7272,2.7336,2.7387,2.7436,2.7458,2.7452,2.7452,2.7466,2.7466,2.7459,2.7464,2.7323,2.7449,2.7448,2.7448,2.7447,2.7447,2.6971,2.7011,2.7049,2.7099,2.7128,2.7162,2.7202,2.7223,2.7268,2.7321,2.7325,2.7383,2.7419,2.7484,2.7509,2.7554,2.754,2.7559,2.7564,2.7569,2.7573,2.7451,2.7563,2.7563,2.7562,2.7562,2.7562,0,2.7079,2.7103,2.7149,2.7201,2.724,2.7231,2.7272,2.7305,2.7357,2.7391,2.7433,2.7495,2.7545,2.7572,2.7621,2.7653,2.7651,2.7665,2.7664,2.7669,2.7582,2.7566,2.7666,2.7666,2.7666,2.7666,2.7666,2.7666,2.7139,2.7207,2.7217,2.7299,2.7322,2.738,2.7403,2.7435,2.7463,2.7533,2.7574,2.7591,2.7623,2.7675,2.772,2.7727,2.7746,2.7762,2.7767,2.7685,2.7675,2.7665,2.765,2.7766,2.7766,2.785,2.7851,2.7852]}]]